Regional Weather Roundup
Issued by NWS State College, PA

Home | Current Version | Previous Version | Text Only | Print | Product List | Glossary Off
Versions: 1 2 3 4 5 6 7 8 9 10 11 12 13 14 15 16 17 18 19 20 21 22 23 24 25 26 27 28 29 30 31 32 33 34 35 36 37 38 39 40 41 42 43 44 45 46 47 48 49 50

000
ASUS41 KCTP 161010
RWRCTP

REGIONAL WEATHER ROUNDUP
NATIONAL WEATHER SERVICE STATE COLLEGE PA
600 AM EDT WED AUG 16 2017

Note: "fair" indicates few or no clouds below 12,000 feet with no
significant weather and/or obstructions to visibility.

* = STATION THAT DOES NOT REPORT PRECIPITATION /E.G. RAIN...SNOW...ETC/
    THUNDER OR FOG.

PAZ002>004-007>009-013>016-020>023-029>032-161100-
WESTERN PENNSYLVANIA

CITY           SKY/WX    TMP DP  RH WIND       PRES   REMARKS
ERIE           CLEAR     59  57  93 S6        30.05R
MEADVILLE      FOG       58  58 100 NE3       30.05F VSB 1
FRANKLIN*      CLOUDY    57  54  88 CALM      30.07R VSB 1/2
NEW CASTLE     FAIR      61  59  94 NE3       30.06S FOG
BEAVER COUNTY  NOT AVBL
BUTLER*        CLOUDY    63  59  88 CALM      30.05R VSB 1/2
PITTSBURGH INT CLOUDY    69  65  86 N5        30.04R
PITTSBURGH     MOCLDY    68  64  87 N3        30.04R
INDIANA*       CLOUDY    63  63 100 CALM      30.08R
LATROBE        CLEAR     63  63 100 CALM      30.05R FOG
WASHINGTON CO* MOCLDY    61  57  88 CALM      30.05R VSB 1/2
$$

PAZ004>006-010>012-017>019-024>028-033>037-041-042-045-046-049>053-161100-
CENTRAL PENNSYLVANIA

CITY           SKY/WX    TMP DP  RH WIND       PRES   REMARKS
BRADFORD       FOG       58  58 100 CALM      30.07R VSB 1/4
DUBOIS         FOG       59  58  96 CALM      30.05R VSB 1/4
CLEARFIELD     FOG       60  60 100 CALM      30.05R VSB 1/2
JOHNSTOWN      CLEAR     63  62  97 W5        30.07R FOG
ALTOONA        CLEAR     62  62 100 CALM      30.04R FOG
STATE COLLEGE  PTCLDY    64  63  94 CALM      30.02R FOG
WILLIAMSPORT   CLOUDY    66  64  93 CALM      29.99R
SELINSGROVE    FOG       66  66 100 CALM      29.99R VSB 1/4
FT INDIANTOWN  FOG       66  66 100 CALM      29.98R VSB<1/4
CAPITAL CITY   FOG       67  65  93 W3        29.98R VSB 1/4
HARRISBURG     FOG       69  69 100 N3        29.98R VSB 1/8
YORK           FOG       65  65 100 CALM      29.98R VSB 1/4
$$

PAZ038>040-043-044-047-048-054-055-060>062-067>071-161100-
EASTERN PENNSYLVANIA

CITY           SKY/WX    TMP DP  RH WIND       PRES   REMARKS
SCRANTON       FOG       64  63  96 CALM      30.01R VSB 1/4
MOUNT POCONO   CLEAR     61  61 100 NW5       30.03R
ALLENTOWN      FOG       67  65  93 CALM      29.97R VSB 1/4
QUAKERTOWN*    CLOUDY    63  63 100 CALM      29.98R VSB 1/4
READING        FOG       67  67 100 CALM      29.96R VSB 1/2
LANCASTER      FOG       68  68 100 CALM      29.97R VSB 1/4
COATESVILLE    FOG       64  64 100 CALM      29.99R VSB<1/4
POTTSTOWN      FOG       66  66 100 NW3       29.98R VSB 1/4
BLUE BELL      CLOUDY    66  66 100 CALM      29.97R VSB 1/4
DOYLESTOWN     FOG       66  66 100 CALM      29.96R VSB 3/4
WILLOW GROVE   NOT AVBL
NORTH PHILA    CLOUDY    71  69  93 W5        29.97R FOG
PHILADELPHIA   PTCLDY    72  69  90 CALM      29.96R FOG
$$




USA.gov is the U.S. government's official web portal to all federal, state and local government web resources and services.